Weather History for CWGB - April, 2013

Change the Weather History Date:

Tuesday, April 23, 2013

  Actual Average Record
Temperature  
Mean Temperature 52 °F -  
Max Temperature 57 °F - - ()
Min Temperature 47 °F - - ()
Degree Days  
Heating Degree Days 13    
Growing Degree Days 2 (Base 50)    
Moisture  
Dew Point 37 °F    
Average Humidity 57    
Maximum Humidity 72    
Minimum Humidity 42    
Precipitation  
Precipitation 0.00 in - - ()
Sea Level Pressure  
Sea Level Pressure 30.31 in    
Wind  
Wind Speed 9 mph ()    
Max Wind Speed 17 mph    
Max Gust Speed -    
T = Trace of Precipitation, MM = Missing Value Source: Averaged Metar Reports

Daily Weather History Graph

Daily Weather History Graph

Search for Another Location

Airport or City:

Trip Planner

Search our weather history database for the weather conditions in past years. The results will help you decide how hot, cold, wet, or windy it might be!

Date:

Astronomy

Apr. 23, 2013 Rise Set
Actual Time 6:08 AM PDT 8:22 PM PDT
Civil Twilight 5:33 AM PDT 8:57 PM PDT
Nautical Twilight 4:50 AM PDT 9:40 PM PDT
Astronomical Twilight 4:01 AM PDT 10:30 PM PDT
Moon 6:15 PM PDT (4/23) 4:51 AM PDT (4/23)
Length of Visible Light 15h 23m
Length of Day
14h 13m
Waxing Gibbous, 94% of the Moon is Illuminated
Apr 23
Waxing Gibbous
Apr 25
Full
May 2
Last Quarter
May 9
New
May 17
First Quarter

Hourly Weather History & Observations

Time (PDT) Temp. Dew Point Humidity Pressure Visibility Wind Dir Wind Speed Gust Speed Precip Events Conditions
12:00 AM 49.5 °F 37.6 °F 64% 30.39 in - WSW 10.4 mph - N/A   Unknown
1:00 AM 48.7 °F 37.6 °F 65% 30.39 in - WSW 10.4 mph - N/A   Unknown
2:00 AM 50.2 °F 40.3 °F 69% 30.38 in - West 11.5 mph - N/A   Unknown
3:00 AM 48.4 °F 36.3 °F 63% 30.35 in - WSW 11.5 mph - N/A   Unknown
4:00 AM 49.3 °F 34.2 °F 56% 30.35 in - WSW 13.8 mph - N/A   Unknown
5:00 AM 49 °F 34 °F 45% 30.33 in - West 12.7 mph - -  
5:00 AM 49.5 °F 34.3 °F 56% 30.33 in - West 12.7 mph - N/A   Unknown
6:00 AM 47.8 °F 31.5 °F 53% 30.32 in - WSW 13.8 mph - N/A   Unknown
7:00 AM 47.7 °F 33.1 °F 57% 30.30 in - WSW 13.8 mph - N/A   Unknown
8:00 AM 48.7 °F 34.9 °F 59% 30.30 in - West 12.7 mph - N/A   Unknown
9:00 AM 48.9 °F 34.7 °F 58% 30.30 in - West 13.8 mph - N/A   Unknown
10:00 AM 49.3 °F 35.2 °F 58% 30.30 in - West 15.0 mph - N/A   Unknown
11:00 AM 50 °F 35 °F 44% 30.30 in - West 17.3 mph - -  
11:00 AM 50.0 °F 34.9 °F 56% 30.30 in - West 17.3 mph - N/A   Unknown
12:00 PM 50.7 °F 35.4 °F 56% 30.32 in - West 16.1 mph - N/A   Unknown
1:00 PM 51.8 °F 35.6 °F 54% 30.31 in - West 8.1 mph - N/A   Unknown
2:00 PM 53.4 °F 38.7 °F 57% 30.31 in - West 5.8 mph - N/A   Unknown
3:00 PM 54.3 °F 38.5 °F 55% 30.30 in - West 4.6 mph - N/A   Unknown
4:00 PM 55.2 °F 40.5 °F 58% 30.29 in - West 5.8 mph - N/A   Unknown
5:00 PM 57 °F 44 °F 50% 30.28 in - WNW 4.6 mph - -  
5:00 PM 56.8 °F 43.5 °F 61% 30.28 in - WNW 4.6 mph - N/A   Unknown
6:00 PM 57.7 °F 34.9 °F 42% 30.27 in - West 2.3 mph - N/A   Unknown
7:00 PM 56.7 °F 36.9 °F 48% 30.27 in - SW 3.5 mph - N/A   Unknown
8:00 PM 55.9 °F 36.7 °F 48% 30.26 in - WSW 5.8 mph - N/A   Unknown
9:00 PM 52.9 °F 44.2 °F 72% 30.27 in - North 2.3 mph - N/A   Unknown
10:00 PM 52.9 °F 43.0 °F 69% 30.27 in - West 2.3 mph - N/A   Unknown
11:00 PM 52 °F 41 °F 57% 30.28 in - WSW 8.1 mph - -  
11:00 PM 51.8 °F 41.4 °F 68% 30.28 in - WSW 8.1 mph - N/A   Unknown